GW3140 Weather Reports


Display with metric or nautical units.
time (UTC)temp
F
wind
direction
speed
MPH
gust
MPH
rain 1hr
in
rain 24hr
in
rain mn
in
humidity
%
barometer
mb
20260906150039 71 0 0.0 2.0 0.00 0.00 0.00 69 1020.3
20260906145518 71 0 0.0 2.0 0.00 0.00 0.00 70 1020.3
20260906145016 71 360 0.0 1.0 0.00 0.00 0.00 71 1020.2
20260906144537 70 0 0.0 1.0 0.00 0.00 0.00 74 1020.3
20260906144017 70 0 0.0 1.0 0.00 0.00 0.00 74 1020.4
20260906143516 70 0 0.0 1.0 0.00 0.00 0.00 75 1020.4
20260906143036 69 0 0.0 1.0 0.00 0.00 0.00 75 1020.3
20260906142519 69 0 0.0 0.0 0.00 0.00 0.00 76 1020.4
20260906142018 69 0 0.0 0.0 0.00 0.00 0.00 77 1020.4
20260906141538 68 0 0.0 0.0 0.00 0.00 0.00 76 1020.3
20260906141023 68 0 0.0 0.0 0.00 0.00 0.00 78 1020.2
20260906140519 68 0 0.0 0.0 0.00 0.00 0.00 79 1020.3
20260906140044 67 0 0.0 0.0 0.00 0.00 0.00 80 1020.3
20260906135519 67 0 0.0 0.0 0.00 0.00 0.00 81 1020.3
20260906135018 66 0 0.0 0.0 0.00 0.00 0.00 82 1020.3
20260906134540 66 0 0.0 0.0 0.00 0.00 0.00 84 1020.2
20260906134016 65 0 0.0 1.0 0.00 0.00 0.00 82 1020.1
20260906133518 65 0 0.0 1.0 0.00 0.00 0.00 83 1020.1
20260906133040 64 0 0.0 1.0 0.00 0.00 0.00 84 1020.2
20260906132520 64 0 0.0 1.0 0.00 0.00 0.00 85 1020.1
20260906132019 63 0 0.0 0.0 0.00 0.00 0.00 86 1020.1
20260906131538 62 0 0.0 1.0 0.00 0.00 0.00 87 1020.0
20260906131019 62 0 0.0 2.0 0.00 0.00 0.00 88 1019.9
20260906130519 61 0 0.0 2.0 0.00 0.00 0.00 89 1019.9
20260906130036 61 0 0.0 0.0 0.00 0.00 0.00 90 1019.9
20260906125517 60 0 0.0 1.0 0.00 0.00 0.00 91 1019.8
20260906125017 60 0 0.0 1.0 0.00 0.00 0.00 92 1019.9
20260906124544 59 0 0.0 0.0 0.00 0.00 0.00 93 1019.9
20260906124018 59 0 0.0 0.0 0.00 0.00 0.00 93 1019.8
20260906123515 58 0 0.0 0.0 0.00 0.00 0.00 94 1019.7
20260906123106 58 0 0.0 0.0 0.00 0.00 0.00 94 1019.8
20260906122521 57 0 0.0 0.0 0.00 0.00 0.00 94 1019.8
20260906122020 57 0 0.0 0.0 0.00 0.00 0.00 94 1019.7
20260906121541 57 0 0.0 0.0 0.00 0.00 0.00 94 1019.8
20260906121019 57 0 0.0 0.0 0.00 0.00 0.00 94 1019.6
20260906120519 56 0 0.0 0.0 0.00 0.00 0.00 94 1019.7
20260906120035 56 0 0.0 0.0 0.00 0.00 0.00 94 1019.4
20260906115517 56 0 0.0 0.0 0.00 0.00 0.00 94 1019.4
20260906115016 56 0 0.0 0.0 0.00 0.00 0.00 94 1019.4
20260906114539 55 0 0.0 0.0 0.00 0.00 0.00 94 1019.4
20260906114017 55 0 0.0 0.0 0.00 0.00 0.00 94 1019.3
20260906113517 55 0 0.0 0.0 0.00 0.00 0.00 94 1019.2
20260906113041 55 0 0.0 0.0 0.00 0.00 0.00 94 1019.2
20260906112519 54 0 0.0 0.0 0.00 0.00 0.00 94 1019.1
20260906112020 54 0 0.0 0.0 0.00 0.00 0.00 93 1018.9
20260906111538 54 0 0.0 0.0 0.00 0.00 0.00 93 1019.1
20260906111018 54 0 0.0 0.0 0.00 0.00 0.00 93 1019.1
20260906110518 54 0 0.0 0.0 0.00 0.00 0.00 93 1019.0
20260906110036 54 0 0.0 0.0 0.00 0.00 0.00 93 1019.1
20260906105519 54 0 0.0 0.0 0.00 0.00 0.00 93 1019.1
20260906105018 54 0 0.0 0.0 0.00 0.00 0.00 93 1018.9
20260906104538 54 0 0.0 0.0 0.00 0.00 0.00 93 1019.1
20260906104018 54 0 0.0 0.0 0.00 0.00 0.00 93 1018.9
20260906103517 54 0 0.0 0.0 0.00 0.00 0.00 93 1018.9
20260906103036 54 0 0.0 0.0 0.00 0.00 0.00 93 1018.9
20260906102518 54 0 0.0 0.0 0.00 0.00 0.00 93 1018.9
20260906102017 54 0 0.0 0.0 0.00 0.00 0.00 93 1018.9
20260906101537 54 0 0.0 0.0 0.00 0.00 0.00 92 1018.9
20260906101018 54 0 0.0 0.0 0.00 0.00 0.00 92 1018.8
20260906100519 54 0 0.0 0.0 0.00 0.00 0.00 92 1018.8
20260906100035 55 0 0.0 0.0 0.00 0.00 0.00 92 1018.7
20260906095518 55 0 0.0 0.0 0.00 0.00 0.00 92 1018.7
20260906095021 55 0 0.0 0.0 0.00 0.00 0.00 92 1018.7
20260906094536 55 0 0.0 0.0 0.00 0.00 0.00 93 1018.7
20260906094016 55 0 0.0 0.0 0.00 0.00 0.00 93 1018.7
20260906093521 55 0 0.0 0.0 0.00 0.00 0.00 93 1018.6
20260906093040 55 0 0.0 0.0 0.00 0.00 0.00 92 1018.7
20260906092519 55 0 0.0 0.0 0.00 0.00 0.00 92 1018.7
20260906092020 55 0 0.0 0.0 0.00 0.00 0.00 92 1018.6
20260906091554 55 0 0.0 0.0 0.00 0.00 0.00 92 1018.5
20260906091019 55 0 0.0 0.0 0.00 0.00 0.00 92 1018.6
20260906090520 55 0 0.0 0.0 0.00 0.00 0.00 92 1018.5
20260906090035 55 0 0.0 0.0 0.00 0.00 0.00 92 1018.6
20260906085522 55 0 0.0 0.0 0.00 0.00 0.00 92 1018.5
20260906085017 55 0 0.0 0.0 0.00 0.00 0.00 92 1018.4
20260906084536 55 0 0.0 0.0 0.00 0.00 0.00 92 1018.4
20260906084019 55 0 0.0 0.0 0.00 0.00 0.00 92 1018.4
20260906083517 55 0 0.0 0.0 0.00 0.00 0.00 92 1018.3
20260906083037 55 0 0.0 0.0 0.00 0.00 0.00 92 1018.3
20260906082519 56 0 0.0 0.0 0.00 0.00 0.00 92 1018.3
20260906082018 56 0 0.0 0.0 0.00 0.00 0.00 92 1018.2
20260906081536 56 0 0.0 0.0 0.00 0.00 0.00 92 1018.1
20260906081019 56 0 0.0 0.0 0.00 0.00 0.00 92 1018.1
20260906080520 56 0 0.0 0.0 0.00 0.00 0.00 92 1017.9
20260906080038 56 0 0.0 0.0 0.00 0.00 0.00 92 1018.0
20260906075518 56 0 0.0 0.0 0.00 0.00 0.00 92 1018.0
20260906075018 56 0 0.0 0.0 0.00 0.00 0.00 91 1018.0
20260906074545 56 0 0.0 0.0 0.00 0.00 0.00 91 1017.8
20260906074016 56 0 0.0 0.0 0.00 0.00 0.00 91 1017.9
20260906073518 56 0 0.0 0.0 0.00 0.00 0.00 91 1017.8
20260906073039 56 0 0.0 0.0 0.00 0.00 0.00 91 1017.8
20260906072520 56 0 0.0 0.0 0.00 0.00 0.00 91 1017.9
20260906072018 56 0 0.0 0.0 0.00 0.00 0.00 91 1017.9
20260906071534 56 0 0.0 0.0 0.00 0.00 0.00 91 1018.0
20260906071018 56 0 0.0 0.0 0.00 0.00 0.00 91 1017.9
20260906070520 56 0 0.0 0.0 0.00 0.00 0.00 91 1017.9
20260906070035 57 0 0.0 0.0 0.00 0.00 0.00 91 1017.9
20260906065517 57 0 0.0 0.0 0.00 0.00 0.00 91 1017.9
20260906065019 57 0 0.0 0.0 0.00 0.00 0.00 91 1017.9
20260906064537 57 0 0.0 0.0 0.00 0.00 0.00 91 1017.8
20260906064018 57 0 0.0 0.0 0.00 0.00 0.00 90 1017.9
20260906063515 57 0 0.0 0.0 0.00 0.00 0.00 90 1017.9
20260906063036 57 0 0.0 0.0 0.00 0.00 0.00 90 1017.9
20260906062515 57 0 0.0 0.0 0.00 0.00 0.00 90 1017.9
20260906062019 57 0 0.0 0.0 0.00 0.00 0.00 90 1017.9
20260906061538 57 0 0.0 0.0 0.00 0.00 0.00 90 1018.0
20260906061017 57 0 0.0 0.0 0.00 0.00 0.00 90 1018.1
20260906060519 58 0 0.0 0.0 0.00 0.00 0.00 89 1017.9
20260906060036 58 0 0.0 0.0 0.00 0.00 0.00 89 1017.8
20260906055517 58 0 0.0 0.0 0.00 0.00 0.00 89 1017.9
20260906055017 58 0 0.0 0.0 0.00 0.00 0.00 89 1017.9
20260906054541 58 0 0.0 0.0 0.00 0.00 0.00 89 1018.0
20260906054016 58 0 0.0 0.0 0.00 0.00 0.00 89 1017.9
20260906053519 58 0 0.0 0.0 0.00 0.00 0.00 89 1017.9
20260906053036 58 0 0.0 0.0 0.00 0.00 0.00 89 1017.9
20260906052517 59 0 0.0 0.0 0.00 0.00 0.00 89 1018.0
20260906052016 59 0 0.0 0.0 0.00 0.00 0.00 89 1017.9
20260906051533 59 0 0.0 0.0 0.00 0.00 0.00 89 1017.9
20260906051018 59 0 0.0 0.0 0.00 0.00 0.00 88 1017.9
20260906050517 59 0 0.0 0.0 0.00 0.00 0.00 88 1017.8
20260906050049 59 0 0.0 0.0 0.00 0.00 0.00 88 1017.7
20260906045518 59 0 0.0 0.0 0.00 0.00 0.00 88 1017.8
20260906045018 59 0 0.0 0.0 0.00 0.00 0.00 88 1017.8
20260906044533 59 0 0.0 0.0 0.00 0.00 0.00 88 1017.9
20260906044020 59 0 0.0 0.0 0.00 0.00 0.00 88 1017.9
20260906043516 60 0 0.0 0.0 0.00 0.00 0.00 88 1017.8
20260906043033 60 0 0.0 0.0 0.00 0.00 0.00 88 1017.8
20260906042517 60 0 0.0 0.0 0.00 0.00 0.00 88 1017.8
20260906042019 60 0 0.0 0.0 0.00 0.00 0.00 88 1017.7
20260906041537 60 0 0.0 0.0 0.00 0.00 0.00 88 1017.7
20260906041020 60 0 0.0 0.0 0.00 0.00 0.00 89 1017.6
20260906040517 60 0 0.0 0.0 0.00 0.00 0.00 89 1017.6
20260906040039 60 0 0.0 0.0 0.00 0.00 0.00 89 1017.5
20260906035518 60 0 0.0 0.0 0.00 0.00 0.00 89 1017.5
20260906035018 60 0 0.0 0.0 0.00 0.00 0.00 90 1017.5
20260906034536 60 0 0.0 0.0 0.00 0.00 0.00 90 1017.4
20260906034017 60 0 0.0 0.0 0.00 0.00 0.00 90 1017.3
20260906033518 60 0 0.0 0.0 0.00 0.00 0.00 90 1017.3
20260906033046 60 0 0.0 0.0 0.00 0.00 0.00 90 1017.3
20260906032520 60 0 0.0 0.0 0.00 0.00 0.00 90 1017.4
20260906032018 60 0 0.0 0.0 0.00 0.00 0.00 90 1017.4
20260906031537 60 0 0.0 0.0 0.00 0.00 0.00 90 1017.6
20260906031017 60 0 0.0 0.0 0.00 0.00 0.00 90 1017.4
20260906030517 60 0 0.0 0.0 0.00 0.00 0.00 90 1017.4
20260906030044 60 0 0.0 0.0 0.00 0.00 0.00 90 1017.4
20260906025516 60 0 0.0 0.0 0.00 0.00 0.00 90 1017.4
20260906025018 60 0 0.0 0.0 0.00 0.00 0.00 90 1017.4
20260906024545 60 0 0.0 0.0 0.00 0.00 0.00 90 1017.3
20260906024019 60 0 0.0 0.0 0.00 0.00 0.00 90 1017.4
20260906023518 60 0 0.0 0.0 0.00 0.00 0.00 90 1017.4
20260906023048 60 0 0.0 0.0 0.00 0.00 0.00 90 1017.5
20260906022519 60 0 0.0 0.0 0.00 0.00 0.00 90 1017.3
20260906022021 60 0 0.0 0.0 0.00 0.00 0.00 90 1017.2
20260906021536 60 0 0.0 0.0 0.00 0.00 0.00 89 1017.4
20260906021020 60 0 0.0 0.0 0.00 0.00 0.00 90 1017.2
20260906020517 61 0 0.0 0.0 0.00 0.00 0.00 90 1017.2
20260906020051 61 0 0.0 0.0 0.00 0.00 0.00 90 1017.1
20260906015520 61 0 0.0 0.0 0.00 0.00 0.00 89 1017.1
20260906015021 61 0 0.0 0.0 0.00 0.00 0.00 89 1016.9
20260906014535 61 0 0.0 0.0 0.00 0.00 0.00 89 1016.9
20260906014020 61 0 0.0 0.0 0.00 0.00 0.00 89 1016.9
20260906013517 61 0 0.0 0.0 0.00 0.00 0.00 89 1016.8
20260906013049 61 0 0.0 0.0 0.00 0.00 0.00 89 1016.9
20260906012515 61 0 0.0 0.0 0.00 0.00 0.00 88 1016.8
20260906012019 62 0 0.0 0.0 0.00 0.00 0.00 88 1016.9
20260906011556 62 0 0.0 0.0 0.00 0.00 0.00 88 1016.8
20260906011018 62 0 0.0 0.0 0.00 0.00 0.00 87 1016.6
20260906010517 62 0 0.0 0.0 0.00 0.00 0.00 87 1016.6
20260906010042 62 0 0.0 0.0 0.00 0.00 0.00 87 1016.5
20260906005517 62 0 0.0 0.0 0.00 0.00 0.00 86 1016.5
20260906005019 63 0 0.0 0.0 0.00 0.00 0.00 86 1016.7
20260906004539 63 0 0.0 0.0 0.00 0.00 0.00 85 1016.6
20260906004026 63 0 0.0 0.0 0.00 0.00 0.00 85 1016.6
20260906003522 63 0 0.0 0.0 0.00 0.00 0.00 85 1016.6
20260906003038 63 0 0.0 0.0 0.00 0.00 0.00 85 1016.7
20260906002517 63 0 0.0 0.0 0.00 0.00 0.00 84 1016.7
20260906002016 64 0 0.0 0.0 0.00 0.00 0.00 84 1016.6
20260906001537 64 0 0.0 0.0 0.00 0.00 0.00 83 1016.6
20260906001020 64 0 0.0 0.0 0.00 0.00 0.00 83 1016.6
20260906000520 64 0 0.0 0.0 0.00 0.00 0.00 82 1016.4
20260906000050 64 0 0.0 0.0 0.00 0.00 0.00 82 1016.4
20260905235519 65 0 0.0 0.0 0.00 0.00 0.00 82 1016.5
20260905235019 65 0 0.0 0.0 0.00 0.00 0.00 81 1016.4
20260905234538 65 0 0.0 0.0 0.00 0.00 0.00 80 1016.5
20260905234016 66 0 0.0 0.0 0.00 0.00 0.00 80 1016.5
20260905233519 66 0 0.0 0.0 0.00 0.00 0.00 78 1016.5
20260905233041 66 0 0.0 0.0 0.00 0.00 0.00 77 1016.5
20260905232519 67 0 0.0 0.0 0.00 0.00 0.00 76 1016.6
20260905232019 67 0 0.0 0.0 0.00 0.00 0.00 75 1016.7
20260905231538 67 0 0.0 0.0 0.00 0.00 0.00 75 1016.6
20260905231019 67 0 0.0 1.0 0.00 0.00 0.00 73 1016.7
20260905230519 67 0 0.0 1.0 0.00 0.00 0.00 72 1016.5
20260905230040 68 0 0.0 0.0 0.00 0.00 0.00 71 1016.6
20260905225521 68 0 0.0 0.0 0.00 0.00 0.00 67 1016.5
20260905225019 68 0 0.0 0.0 0.00 0.00 0.00 65 1016.5
20260905224548 69 0 0.0 0.0 0.00 0.00 0.00 63 1016.4
20260905224016 69 0 0.0 3.0 0.00 0.00 0.00 61 1016.4
20260905223516 69 0 0.0 3.0 0.00 0.00 0.00 61 1016.4
20260905223038 70 0 0.0 3.0 0.00 0.00 0.00 60 1016.4
20260905222518 70 0 0.0 3.0 0.00 0.00 0.00 60 1016.5
20260905222019 70 0 0.0 3.0 0.00 0.00 0.00 57 1016.5
20260905221537 71 0 0.0 1.0 0.00 0.00 0.00 57 1016.4
20260905221018 71 0 0.0 1.0 0.00 0.00 0.00 59 1016.4
20260905220519 71 0 0.0 1.0 0.00 0.00 0.00 58 1016.4
20260905220037 71 0 0.0 1.0 0.00 0.00 0.00 60 1016.4
20260905215517 72 280 0.0 2.0 0.00 0.00 0.00 60 1016.5
20260905215019 72 0 0.0 2.0 0.00 0.00 0.00 60 1016.4
20260905214537 72 0 0.0 1.0 0.00 0.00 0.00 58 1016.3
20260905214018 72 0 0.0 0.0 0.00 0.00 0.00 58 1016.4
20260905213520 73 0 0.0 6.0 0.00 0.00 0.00 59 1016.4
20260905213037 73 0 0.0 6.0 0.00 0.00 0.00 57 1016.3
20260905212518 73 0 0.0 0.0 0.00 0.00 0.00 60 1016.3
20260905212019 74 0 0.0 1.0 0.00 0.00 0.00 59 1016.3
20260905211541 74 0 0.0 1.0 0.00 0.00 0.00 60 1016.2
20260905211018 74 0 0.0 1.0 0.00 0.00 0.00 59 1016.2
20260905210519 74 0 0.0 1.0 0.00 0.00 0.00 62 1016.2
20260905210036 74 0 0.0 1.0 0.00 0.00 0.00 60 1016.2
20260905205519 75 0 0.0 1.0 0.00 0.00 0.00 62 1016.2
20260905205016 75 0 0.0 1.0 0.00 0.00 0.00 62 1016.0
20260905204537 75 0 0.0 4.0 0.00 0.00 0.00 62 1016.0
20260905204017 75 0 0.0 4.0 0.00 0.00 0.00 66 1016.1
20260905203518 75 0 0.0 3.0 0.00 0.00 0.00 65 1016.0
20260905203034 75 0 0.0 2.0 0.00 0.00 0.00 64 1016.1
20260905202523 75 0 0.0 2.0 0.00 0.00 0.00 64 1016.1
20260905202018 75 0 0.0 2.0 0.00 0.00 0.00 64 1016.1
20260905201536 75 0 0.0 1.0 0.00 0.00 0.00 66 1016.1
20260905201019 75 0 0.0 1.0 0.00 0.00 0.00 65 1016.1
20260905200518 75 0 0.0 1.0 0.00 0.00 0.00 68 1016.1
20260905200040 75 0 0.0 1.0 0.00 0.00 0.00 66 1016.1
20260905195519 76 0 0.0 1.0 0.00 0.00 0.00 66 1016.1
20260905195017 76 0 0.0 1.0 0.00 0.00 0.00 66 1016.2
20260905194534 76 0 0.0 1.0 0.00 0.00 0.00 65 1016.2
20260905194019 76 0 0.0 1.0 0.00 0.00 0.00 69 1016.2
20260905193518 75 0 0.0 1.0 0.00 0.00 0.00 68 1016.2
20260905193035 75 0 0.0 0.0 0.00 0.00 0.00 67 1016.2
20260905192521 75 0 0.0 0.0 0.00 0.00 0.00 69 1016.2
20260905192019 75 0 0.0 0.0 0.00 0.00 0.00 67 1016.3
20260905191537 76 0 0.0 1.0 0.00 0.00 0.00 64 1016.3
20260905191018 76 0 0.0 1.0 0.00 0.00 0.00 63 1016.3
20260905190517 77 0 0.0 2.0 0.00 0.00 0.00 61 1016.3
20260905190035 77 0 0.0 3.0 0.00 0.00 0.00 63 1016.3
20260905185517 76 0 0.0 3.0 0.00 0.00 0.00 65 1016.3
20260905185016 76 0 0.0 3.0 0.00 0.00 0.00 60 1016.3
20260905184554 77 0 0.0 1.0 0.00 0.00 0.00 64 1016.5
20260905184017 77 0 0.0 1.0 0.00 0.00 0.00 64 1016.4
20260905183518 77 0 0.0 1.0 0.00 0.00 0.00 59 1016.4
20260905183058 77 0 0.0 1.0 0.00 0.00 0.00 57 1016.5
20260905182517 77 0 0.0 1.0 0.00 0.00 0.00 59 1016.6
20260905182019 77 0 0.0 0.0 0.00 0.00 0.00 59 1016.6
20260905181546 77 0 0.0 1.0 0.00 0.00 0.00 57 1016.5
20260905181018 78 0 0.0 1.0 0.00 0.00 0.00 54 1016.5
20260905180518 78 0 0.0 1.0 0.00 0.00 0.00 55 1016.4
20260905180036 77 0 0.0 1.0 0.00 0.00 0.00 59 1016.5
20260905175519 77 0 0.0 0.0 0.00 0.00 0.00 56 1016.4
20260905175015 77 0 0.0 0.0 0.00 0.00 0.00 57 1016.4
20260905174536 78 0 0.0 0.0 0.00 0.00 0.00 56 1016.5
20260905174017 78 0 0.0 1.0 0.00 0.00 0.00 59 1016.5
20260905173519 77 0 0.0 1.0 0.00 0.00 0.00 56 1016.4
20260905173036 77 0 0.0 1.0 0.00 0.00 0.00 58 1016.4
20260905172518 77 0 0.0 2.0 0.00 0.00 0.00 57 1016.5
20260905172020 77 0 0.0 3.0 0.00 0.00 0.00 57 1016.5
20260905171535 78 0 1.0 3.0 0.00 0.00 0.00 59 1016.7
20260905171019 77 0 0.0 4.0 0.00 0.00 0.00 59 1016.6
20260905170516 77 77 1.0 4.0 0.00 0.00 0.00 62 1016.5
20260905170036 77 0 0.0 4.0 0.00 0.00 0.00 59 1016.5
20260905165518 76 41 0.0 3.0 0.00 0.00 0.00 58 1016.5
20260905165018 76 55 0.0 3.0 0.00 0.00 0.00 61 1016.5
20260905164536 75 347 0.0 3.0 0.00 0.00 0.00 60 1016.6
20260905164018 75 0 0.0 0.0 0.00 0.00 0.00 62 1016.5
20260905163515 75 0 0.0 2.0 0.00 0.00 0.00 61 1016.7
20260905163036 76 0 0.0 3.0 0.00 0.00 0.00 60 1016.7
20260905162520 76 358 0.0 3.0 0.00 0.00 0.00 59 1016.7
20260905162018 76 30 1.0 3.0 0.00 0.00 0.00 58 1016.7
20260905161537 76 41 0.0 3.0 0.00 0.00 0.00 63 1016.8
20260905161017 75 0 0.0 3.0 0.00 0.00 0.00 61 1016.8
20260905160518 75 0 1.0 4.0 0.00 0.00 0.00 61 1016.7
20260905160036 75 47 1.0 4.0 0.00 0.00 0.00 62 1016.6
20260905155517 75 33 0.0 4.0 0.00 0.00 0.00 62 1016.8
20260905155018 75 332 0.0 4.0 0.00 0.00 0.00 62 1016.8
20260905154554 75 29 0.0 5.0 0.00 0.00 0.00 59 1016.8
20260905154020 75 32 1.0 5.0 0.00 0.00 0.00 63 1016.9
20260905153522 75 15 0.0 4.0 0.00 0.00 0.00 64 1016.8
20260905153034 75 0 0.0 3.0 0.00 0.00 0.00 64 1016.7
20260905152518 74 0 0.0 4.0 0.00 0.00 0.00 64 1016.8
20260905152019 74 29 1.0 4.0 0.00 0.00 0.00 62 1016.7
20260905151537 74 339 1.0 4.0 0.00 0.00 0.00 62 1016.7
20260905151020 73 4 0.0 4.0 0.00 0.00 0.00 66 1016.6
20260905150519 73 43 1.0 4.0 0.00 0.00 0.00 62 1016.6